This demonstration page uses our WeatherBlox Daily Observations layout. Learn more.

Left ArrowRight Arrow

Hourly Observations for December 9, 2021

Temp ( °F °C ) Dew Point ( °F °C ) Humidity (%) Winds ( mph kmh ) Pressure ( in mb ) Visibility ( mi km ) Precip ( " mm )
12:56 am 00:56 Cloudy 44 6.5 27 -2.7 52 52 SSE 13 20 29.60 1002 10 16 0.00 0.00
1:56 am 01:56 Mostly Cloudy 43 5.9 27 -2.7 54 54 SE 8 13 29.57 1001 10 16 0.00 0.00
2:56 am 02:56 Cloudy 42 5.8 27 -3 54 54 SSE 10 17 29.57 1001 10 16 0.00 0.00
3:56 am 03:56 Mostly Cloudy 42 5.5 27 -2.8 55 55 SSE 8 13 29.54 1001 10 16 0.00 0.00
4:56 am 04:56 Clear 39 4.1 29 -1.9 65 65 SSE 8 13 29.52 1000 10 16 0.00 0.00
5:56 am 05:56 Clear 38 3.5 28 -2.1 67 67 S 5 7 29.54 1000 10 16 0.00 0.00
6:56 am 06:56 Clear 37 2.8 28 -2.1 70 70 SSE 5 7 29.54 1000 10 16 0.00 0.00
7:56 am 07:56 Partly Cloudy 38 3.2 29 -1.4 72 72 S 3 6 29.55 1001 10 16 0.00 0.00
8:56 am 08:56 Sunny 39 4 30 -1 70 70 SSW 3 6 29.56 1001 10 16 0.00 0.00
9:56 am 09:56 Sunny 46 7.5 33 0.5 62 62 WNW 9 15 29.58 1002 10 16 0.00 0.00
10:56 am 10:56 Sunny 49 9.4 30 -1.3 48 48 WNW 14 22 29.63 1004 10 16 0.00 0.00
11:56 am 11:56 undefined 53 11.4 28 -2.1 39 39 NW 15 24 29.65 1004 9 14 0.00 0.00
12:56 pm 12:56 Sunny 56 13.2 28 -2.3 34 34 NW 15 24 29.68 1005 10 16 0.00 0.00
1:56 pm 13:56 Sunny 58 14.5 28 -2 32 32 NW 15 24 29.68 1005 10 16 0.00 0.00
2:56 pm 14:56 Sunny 57 14 31 -0.8 36 36 NW 14 22 29.72 1006 10 16 0.00 0.00
3:56 pm 15:56 Mostly Cloudy 55 12.7 27 -2.8 34 34 NNW 12 19 29.76 1008 10 16 0.00 0.00
4:56 pm 16:56 Cloudy 52 11.1 24 -4.2 34 34 NNE 7 11 29.75 1008 10 16 0.00 0.00
5:56 pm 17:56 Cloudy 50 9.8 24 -4.2 37 37 N 8 13 29.80 1009 10 16 0.00 0.00
6:56 pm 18:56 Cloudy 49 9.2 24 -4.7 37 37 N 6 9 29.86 1011 10 16 0.00 0.00
7:56 pm 19:56 Cloudy 47 8.6 24 -4.2 40 40 N 5 7 29.88 1012 10 16 0.00 0.00
8:56 pm 20:56 Cloudy 46 7.8 25 -4 43 43 N 5 7 29.88 1012 10 16 0.00 0.00
9:56 pm 21:56 Cloudy 46 7.8 24 -4.3 42 42 NNE 6 9 29.87 1012 10 16 0.00 0.00
10:56 pm 22:56 Cloudy 44 6.6 24 -4.2 46 46 NNE 8 13 29.89 1012 10 16 0.00 0.00
11:56 pm 23:56 undefined 41 5 26 -3.3 55 55 NE 12 19 29.87 1012 10 16 0.00 0.00

Powered by AerisWeather